Location: Pedro
(43.9050°N, 104.3408°W)
Time: 22:07:46
(UTC+00:00)

ISS - Pass Details

Date: 30 May 2023
Orbit: 414 x 422 km, 51.6° (Epoch: 22 September)

Event Time Altitude Azimuth Distance (km) Brightness Sun altitude
Rises 03:46:50 0° 295° (WNW) 2,424 1.6 -11.5°
Reaches altitude 10° 03:49:06 10° 284° (WNW) 1,557 0.1 -11.8°
Maximum altitude 03:52:12 29° 222° (SW) 830 -2.3 -12.2°
Enters shadow 03:54:16 17° 171° (S) 1,210 -1.9 -12.4°
